15 daagse weersverwachting BodÝ (NO)

  • Overzicht
  • Per uur
  • 15 dagen
  • Extra
  • Vergelijk
  • Kaarten
  • Dagkaart
  • Meer »
  • Info
  • Statistieken
  • Directe link
    Temp 6h Neerslag Wind  
Midzomernacht Vandaag
14:00
17°
 
3
20:00
15°
 
6
Midzomernacht Morgen
02:00
14°
 
6
08:00
13°
2.9 mm
1
14:00
12°
13.1 mm
6
20:00
12°
2.9 mm
4
Midzomernacht Zaterdag 22 Jun
02:00
11°
 
2
08:00
11°
9.2 mm
3
14:00
11°
18.7 mm
4
20:00
11°
9.0 mm
7
Midzomernacht Zondag 23 Jun
02:00
11°
3.7 mm
6
08:00
10°
37.6 mm
7
Locatie info
Region: Nordland
Latitude: 67.2860°N
Longitude: 14.3998°E
22 masl
Postcode: 8006
Temp/Neerslag /Baro Onweer/Dauwpunt
    Temp Baro 1h Neerslag Dauwpunt Wind UV Bewolking  
Midzomernacht Vandaag
12:00
17°
1008.3 hPa   7.8°
4
Windvlaag: 6.2 km/h
85%
13:00
17°
1007.8 hPa   8.4°
4
Windvlaag: 6.1 km/h
89%
14:00
17°
1007.3 hPa   8.9°
3
Windvlaag: 6.1 km/h
91%
15:00
17°
1007.0 hPa   9.2°
3
Windvlaag: 6.2 km/h
91%
16:00
17°
1006.8 hPa
16%
9.9°
5
Windvlaag: 5 km/h
88%
17:00
16°
1006.5 hPa
24%
10.1°
5
Windvlaag: 5.4 km/h
82%
18:00
16°
1005.8 hPa
21%
9.7°
7
Windvlaag: 7.6 km/h
85%
19:00
16°
1005.1 hPa
14%
9.4°
6
Windvlaag: 8.8 km/h
85%
20:00
15°
1004.6 hPa
11%
9.4°
6
Windvlaag: 9 km/h
87%
21:00
15°
1004.4 hPa
14%
10.1°
6
Windvlaag: 9.6 km/h
85%
22:00
15°
1004.1 hPa
15%
10.1°
6
Windvlaag: 10.1 km/h
75%
23:00
15°
1003.6 hPa
23%
9.8°
6
Windvlaag: 10.4 km/h
89%
Midzomernacht Morgen
00:00
14°
1003.1 hPa
32%
9.8°
6
Windvlaag: 10 km/h
87%
01:00
14°
1002.8 hPa
58%
9.9°
6
Windvlaag: 9.9 km/h
86%
02:00
14°
1002.4 hPa
14%
9.9°
6
Windvlaag: 9.7 km/h
68%
03:00
14°
1002.5 hPa
14%
9.9°
5
Windvlaag: 9.1 km/h
53%
04:00
13°
1002.5 hPa
14%
10.1°
4
Windvlaag: 8.2 km/h
68%
05:00
13°
1002.5 hPa
19%
10.0°
3
Windvlaag: 7.3 km/h
70%
06:00
13°
1002.5 hPa
31%
10.5°
3
Windvlaag: 6.2 km/h
76%
07:00
13°
1002.6 hPa
72%
10.8°
2
Windvlaag: 5.6 km/h
89%
08:00
13°
1002.7 hPa 2.9 mm
82%
10.5°
1
Windvlaag: 4.7 km/h
90%
09:00
12°
1003.2 hPa 3.8 mm
82%
10.7°
3
Windvlaag: 6.3 km/h
91%
10:00
12°
1003.6 hPa 2.8 mm
82%
10.7°
4
Windvlaag: 6.4 km/h
91%
11:00
12°
1004.1 hPa 3.3 mm
82%
11.1°
4
Windvlaag: 6.4 km/h
72%
12:00
12°
1004.5 hPa 3.2 mm
82%
11.2°
4
Windvlaag: 6.1 km/h
81%
13:00
12°
1004.9 hPa
82%
11.2°
5
Windvlaag: 7.3 km/h
87%
14:00
12°
1005.4 hPa
81%
10.9°
6
Windvlaag: 7.8 km/h
87%
15:00
12°
1005.8 hPa
82%
10.6°
6
Windvlaag: 7.9 km/h
77%
16:00
12°
1006.1 hPa 2.9 mm
80%
10.2°
7
Windvlaag: 8.7 km/h
61%
17:00
12°
1006.4 hPa
79%
10.2°
6
Windvlaag: 8.2 km/h
60%
18:00
12°
1006.5 hPa
82%
10.1°
6
Windvlaag: 7.5 km/h
67%
19:00
12°
1006.7 hPa
82%
9.9°
5
Windvlaag: 6.8 km/h
58%
20:00
12°
1006.7 hPa
82%
10.0°
4
Windvlaag: 5.6 km/h
56%
21:00
11°
1006.8 hPa
82%
10.2°
3
Windvlaag: 4.5 km/h
63%
22:00
11°
1006.9 hPa
82%
10.3°
2
Windvlaag: 3.5 km/h
63%
23:00
11°
1007.0 hPa
82%
10.2°
1
Windvlaag: 2.3 km/h
55%
Midzomernacht Zaterdag 22 Jun
00:00
11°
1007.0 hPa
82%
10.1°
1
Windvlaag: 2.2 km/h
55%
01:00
11°
1007.1 hPa
82%
10.0°
1
Windvlaag: 2 km/h
78%
02:00
11°
1007.1 hPa
82%
10.0°
2
Windvlaag: 1.9 km/h
71%
03:00
11°
1007.0 hPa
82%
9.8°
3
Windvlaag: 2.5 km/h
86%
04:00
11°
1007.0 hPa
82%
9.7°
3
Windvlaag: 2.8 km/h
83%
05:00
11°
1006.8 hPa
100%
10.0°
2
Windvlaag: 2.6 km/h
99%
06:00
11°
1006.6 hPa 2.9 mm
100%
9.8°
2
Windvlaag: 2.3 km/h
99%
07:00
11°
1006.5 hPa 3.1 mm
100%
9.6°
2
Windvlaag: 3.3 km/h
98%
08:00
11°
1006.6 hPa 3.2 mm
100%
10.2°
3
Windvlaag: 4.3 km/h
99%
09:00
11°
1006.8 hPa 3.2 mm
100%
10.3°
4
Windvlaag: 5.7 km/h
100%
10:00
11°
1007.2 hPa 3.2 mm
100%
9.6°
4
Windvlaag: 6 km/h
100%
11:00
11°
1007.6 hPa 3.2 mm
100%
10.3°
4
Windvlaag: 6.3 km/h
100%
12:00
11°
1007.9 hPa 3.2 mm
100%
9.3°
4
Windvlaag: 6.7 km/h
100%
13:00
11°
1008.2 hPa 3.3 mm
100%
9.4°
4
Windvlaag: 6.7 km/h
100%
14:00
11°
1008.6 hPa 2.5 mm
100%
9.8°
4
Windvlaag: 6.6 km/h
100%
15:00
11°
1008.9 hPa 2.5 mm
100%
10.1°
5
Windvlaag: 8.1 km/h
100%
16:00
11°
1009.3 hPa 3.3 mm
100%
9.5°
6
Windvlaag: 9.5 km/h
99%
17:00
11°
1009.7 hPa 3.2 mm
100%
8.6°
7
Windvlaag: 10.3 km/h
95%
18:00
11°
1010.0 hPa
100%
7.7°
7
Windvlaag: 11.2 km/h
90%
19:00
11°
1010.3 hPa
100%
8.8°
6
Windvlaag: 10.9 km/h
88%
20:00
11°
1010.6 hPa
100%
9.1°
7
Windvlaag: 10.9 km/h
86%
21:00
11°
1011.0 hPa
99%
8.7°
7
Windvlaag: 11.5 km/h
89%
22:00
11°
1011.4 hPa
100%
8.1°
7
Windvlaag: 11.3 km/h
91%
23:00
10°
1011.8 hPa 3.7 mm
100%
7.9°
8
Windvlaag: 10.2 km/h
97%
Midzomernacht Zondag 23 Jun
00:00
10°
1012.2 hPa
99%
8.9°
7
Windvlaag: 9.6 km/h
88%
01:00
10°
1012.4 hPa
99%
7.9°
6
Windvlaag: 9.4 km/h
95%
02:00
11°
1012.6 hPa
100%
8.6°
6
Windvlaag: 9.2 km/h
87%
03:00
10°
1013.3 hPa 6.2 mm
100%
8.2°
7
Windvlaag: 10.7 km/h
77%
04:00
10°
1013.2 hPa 6.2 mm
100%
8.0°
7
Windvlaag: 11 km/h
75%
05:00
10°
1013.0 hPa 6.3 mm
99%
7.9°
6
Windvlaag: 10.5 km/h
76%
06:00
10°
1012.6 hPa 6.2 mm
89%
7.9°
6
Windvlaag: 9.7 km/h
79%
07:00
10°
1012.3 hPa 6.2 mm
95%
7.7°
6
Windvlaag: 10.6 km/h
88%
08:00
10°
1012.1 hPa 6.3 mm
99%
7.4°
7
Windvlaag: 1.4 km/h
89%
09:00
11°
1012.7 hPa 6.3 mm
100%
7.6°
6
Windvlaag: 8.9 km/h
86%
10:00
11°
1013.3 hPa 6.3 mm
100%
7.8°
6
Windvlaag: 8.9 km/h
85%
11:00
11°
1013.9 hPa 6.3 mm
99%
7.9°
7
Windvlaag: 8.9 km/h
84%
Temp/Neerslag /Baro Onweer/Dauwpunt
    Temp Baro Neerslag Dauwpunt Wind Bewolking  
Midzomernacht Vandaag
14:00
17°
1007.3 hPa   8.9°
3
91%
17:00
16°
1006.5 hPa   10.1°
5
82%
20:00
15°
1004.6 hPa   9.4°
6
87%
23:00
15°
1003.6 hPa   9.8°
6
89%
Midzomernacht Morgen
02:00
14°
1002.4 hPa   9.9°
6
68%
05:00
13°
1002.5 hPa   10.0°
3
70%
08:00
13°
1002.7 hPa 2.9 mm 10.5°
1
90%
11:00
12°
1004.1 hPa 9.8 mm 11.1°
4
72%
14:00
12°
1005.4 hPa 3.2 mm 10.9°
6
87%
17:00
12°
1006.4 hPa 2.9 mm 10.2°
6
60%
20:00
12°
1006.7 hPa   10.0°
4
56%
23:00
11°
1007.0 hPa   10.2°
1
55%
Midzomernacht Zaterdag 22 Jun
02:00
11°
1007.1 hPa   10.0°
2
71%
05:00
11°
1006.8 hPa   10.0°
2
99%
08:00
11°
1006.6 hPa 9.2 mm 10.2°
3
99%
11:00
11°
1007.6 hPa 9.6 mm 10.3°
4
100%
14:00
11°
1008.6 hPa 9.0 mm 9.8°
4
100%
17:00
11°
1009.7 hPa 9.0 mm 8.6°
7
95%
20:00
11°
1010.6 hPa   9.1°
7
86%
23:00
10°
1011.8 hPa 3.7 mm 7.9°
8
97%
Midzomernacht Zondag 23 Jun
02:00
11°
1012.6 hPa   8.6°
6
87%
05:00
10°
1013.0 hPa 18.7 mm 7.9°
6
76%
08:00
10°
1012.1 hPa 18.8 mm 7.4°
7
89%
11:00
11°
1013.9 hPa 18.9 mm 7.9°
7
84%
14:00
12°
1015.7 hPa 18.7 mm 8.4°
7
69%
17:00
11°
1017.8 hPa 20.3 mm 8.4°
6
84%
20:00
10°
1018.7 hPa 21.0 mm 8.4°
6
87%
23:00
10°
Voelt als: 7.2°
1019.6 hPa 22.5 mm 8.1°
6
87%
Midzomernacht Maandag 24 Jun
02:00
Voelt als: 6.8°
1020.5 hPa 22.7 mm 7.7°
6
87%
05:00
10°
Voelt als: 7.0°
1021.9 hPa 23.4 mm 7.7°
5
89%
08:00
10°
Voelt als: 7.2°
1023.4 hPa 23.7 mm 7.6°
5
91%
11:00
10°
1025.2 hPa 24.0 mm 7.4°
5
89%
14:00
11°
1026.9 hPa 24.2 mm 7.3°
6
86%
17:00
11°
1027.8 hPa 24.5 mm 7.1°
5
86%
20:00
10°
1028.8 hPa 24.9 mm 6.8°
5
85%
23:00
10°
Voelt als: 7.3°
1029.1 hPa 25.5 mm 7.3°
5
79%
Midzomernacht Dinsdag 25 Jun
02:00
Voelt als: 6.9°
1029.3 hPa 26.1 mm 7.7°
4
73%
05:00
10°
Voelt als: 7.3°
1029.2 hPa 26.7 mm 7.2°
4
75%
08:00
10°
Voelt als: 7.7°
1029.1 hPa 27.4 mm 6.7°
4
77%
11:00
11°
1029.2 hPa 27.7 mm 6.7°
4
81%
14:00
11°
1029.2 hPa 27.7 mm 6.7°
5
85%
17:00
11°
1028.1 hPa 27.7 mm 6.7°
5
88%
20:00
11°
1027.0 hPa 27.7 mm 6.6°
4
90%
23:00
10°
Voelt als: 8.1°
1026.3 hPa 27.7 mm 6.9°
4
89%
Midzomernacht Woensdag 26 Jun
02:00
Voelt als: 7.8°
1025.5 hPa 27.7 mm 7.1°
3
89%
05:00
10°
Voelt als: 7.8°
1023.9 hPa 27.7 mm 6.7°
4
89%
08:00
10°
1022.3 hPa 27.8 mm 6.2°
5
90%
11:00
11°
1021.4 hPa 27.8 mm 6.9°
7
91%
14:00
11°
1020.6 hPa 29.0 mm 7.8°
8
92%
17:00
11°
1019.2 hPa 32.0 mm 7.9°
8
92%
20:00
10°
1017.8 hPa 36.1 mm 8.0°
7
92%
23:00
10°
1015.9 hPa 38.0 mm 8.1°
6
92%
Midzomernacht Donderdag 27 Jun
02:00
10°
Voelt als: 6.8°
1014.0 hPa 38.3 mm 8.0°
6
92%
05:00
10°
Voelt als: 6.7°
1013.0 hPa 39.1 mm 8.0°
6
92%
08:00
10°
Voelt als: 6.6°
1012.0 hPa 39.5 mm 7.8°
6
92%
11:00
10°
1011.4 hPa   7.9°
7
92%
14:00
10°
1010.9 hPa 79.8 mm 8.1°
7
92%
20:00
Voelt als: 5.9°
1011.5 hPa 81.5 mm 6.4°
5
91%
Midzomernacht Vrijdag 28 Jun
02:00
Voelt als: 6.4°
1012.3 hPa 83.0 mm 7.0°
5
92%
08:00
Voelt als: 6.6°
1012.9 hPa 84.0 mm 4.6°
4
84%
14:00
10°
Voelt als: 7.4°
1013.7 hPa 84.3 mm 4.1°
5
84%
20:00
Voelt als: 6.9°
1013.1 hPa 84.3 mm 4.9°
5
81%
Midzomernacht Zaterdag 29 Jun
02:00
12°
997.0 hPa 84.3 mm 5.5°
6
1%
08:00
13°
993.2 hPa 91.2 mm 9.2°
4
1%
14:00
15°
993.5 hPa 92.5 mm 9.2°
4
1%
20:00
15°
989.9 hPa 93.3 mm 9.1°
7
1%
Midzomernacht Zondag 30 Jun
02:00
12°
991.0 hPa 94.8 mm 10.8°
2
1%
08:00
10°
Voelt als: 9.9°
1011.3 hPa 0.8 mm 5.8°
1
57%
14:00
12°
1011.2 hPa 0.8 mm 5.9°
2
53%
20:00
12°
1011.2 hPa 0.5 mm 6.1°
2
47%
Midzomernacht Maandag 01 Jul
02:00
10°
1011.4 hPa 0.4 mm 6.2°
0
41%
08:00
11°
1010.6 hPa 0.5 mm 6.1°
0
43%
14:00
13°
1009.9 hPa 0.6 mm 6.3°
2
47%
20:00
13°
1009.6 hPa 0.6 mm 7.0°
3
45%
Midzomernacht Dinsdag 02 Jul
02:00
11°
1009.8 hPa 1.0 mm 7.2°
1
45%
08:00
12°
1009.3 hPa 0.7 mm 7.3°
1
49%
14:00
14°
1009.1 hPa 0.7 mm 7.4°
2
47%
20:00
13°
1009.0 hPa 0.8 mm 7.8°
2
49%
Midzomernacht Woensdag 03 Jul
02:00
11°
1009.3 hPa 0.7 mm 8.1°
1
47%
08:00
13°
1009.1 hPa 0.9 mm 8.1°
0
51%
14:00
14°
1009.5 hPa 0.6 mm 8.1°
2
54%
20:00
14°
1009.7 hPa 0.3 mm 8.4°
3
46%
Midzomernacht Donderdag 04 Jul
02:00
12°
1010.2 hPa 0.2 mm 8.5°
1
34%
08:00
13°
1009.9 hPa 0.4 mm 8.7°
1
37%
14:00
15°
1010.0 hPa 0.5 mm 8.8°
2
39%
20:00
15°
1010.2 hPa 0.5 mm 9.1°
3
38%
Midzomernacht Vrijdag 05 Jul
02:00
13°
1011.1 hPa 0.4 mm 9.6°
1
37%
08:00
15°
1010.9 hPa 0.4 mm 9.4°
1
36%
  CAPE Lifted Index Hail Supercell Tornado SRH 3km CL BTM PRES CL TOP PRES Swiss DWD icon SMHI TS
Midzomernacht Vandaag
12:00 0 J/kg 5.0 K 0 % 0 % 0 % 0 m²/s² 0 0 7.31 3
13:00 9 J/kg 5.2 K 0 % 0 % 0 % 0 m²/s² 0 0 7.12 3
14:00 10 J/kg 5.3 K 0 % 0 % 0 % 0 m²/s² 0 0 6.29 3
15:00 26 J/kg 5.2 K 0 % 0 % 0 % 0 m²/s² 0 0 5.53 3
16:00 18 J/kg 5.6 K 0 % 0 % 0 % 0 m²/s² 0 0 5.84 3
17:00 6 J/kg 5.6 K 0 % 0 % 0 % 0 m²/s² 0 0 5.81 3
18:00 0 J/kg 5.9 K 0 % 0 % 0 % 0 m²/s² 0 0 6.2 3
19:00 0 J/kg 5.5 K 0 % 0 % 0 % 0 m²/s² 0 0 5.8 3
20:00 0 J/kg 4.7 K 0 % 0 % 0 % 0 m²/s² 0 0 5.27 3
21:00 0 J/kg 3.6 K 0 % 0 % 0 % 0 m²/s² 0 0 4.38 3
22:00 0 J/kg 2.8 K 0 % 0 % 0 % 0 m²/s² 0 0 3.19 3
23:00 0 J/kg 2.8 K 0 % 0 % 0 % 0 m²/s² 0 0 3.79 3
Midzomernacht Morgen
00:00 0 J/kg 2.8 K 0 % 0 % 0 % 0 m²/s² 0 0 3.7 3
01:00 0 J/kg 2.1 K 0 % 0 % 0 % 0 m²/s² 0 0 3.03 3
02:00 0 J/kg 1.4 K 0 % 0 % 0 % 0 m²/s² 0 0 2.24 3
03:00 0 J/kg 1.6 K 0 % 0 % 0 % 0 m²/s² 0 0 2.11 3
04:00 0 J/kg 2.2 K 0 % 0 % 0 % 0 m²/s² 0 0 2.29 3
05:00 0 J/kg 3.2 K 0 % 0 % 0 % 0 m²/s² 0 0 3.32 3
06:00 1 J/kg 3.4 K 0 % 0 % 0 % 0 m²/s² 0 0 3.49 3
07:00 9 J/kg 3.8 K 0 % 0 % 0 % 0 m²/s² 0 0 3.83 3
08:00 2 J/kg 4.5 K 0 % 0 % 0 % 0 m²/s² 0 0 4.59 61
09:00 0 J/kg 4.4 K 0 % 0 % 0 % 0 m²/s² 0 0 4.49 61
10:00 1 J/kg 4.4 K 0 % 0 % 0 % 0 m²/s² 0 0 4.52 63
11:00 4 J/kg 4.5 K 0 % 0 % 0 % 0 m²/s² 0 0 4.74 55
12:00 5 J/kg 4.5 K 0 % 0 % 0 % 0 m²/s² 0 0 5.76 61
13:00 5 J/kg 4.6 K 0 % 0 % 0 % 0 m²/s² 0 0 6.49 61
14:00 5 J/kg 4.9 K 0 % 0 % 0 % 0 m²/s² 0 0 5.71 3
15:00 12 J/kg 6.8 K 0 % 0 % 0 % 0 m²/s² 0 0 8 3
16:00 6 J/kg 6.5 K 0 % 0 % 0 % 0 m²/s² 0 0 8.39 61
17:00 11 J/kg 6.2 K 0 % 0 % 0 % 0 m²/s² 0 0 8.27 3
18:00 14 J/kg 6.5 K 0 % 0 % 0 % 0 m²/s² 0 0 8.3 3
19:00 7 J/kg 6.8 K 0 % 0 % 0 % 0 m²/s² 0 0 8.27 61
20:00 1 J/kg 6.2 K 0 % 0 % 0 % 0 m²/s² 0 0 7.28 61
21:00 1 J/kg 5.3 K 0 % 0 % 0 % 0 m²/s² 0 0 6.29 61
22:00 0 J/kg 5.6 K 0 % 0 % 0 % 0 m²/s² 0 0 6.68 61
23:00 0 J/kg 5.4 K 0 % 0 % 0 % 0 m²/s² 0 0 6.48 61
Midzomernacht Zaterdag 22 Jun
00:00 0 J/kg 5.6 K 0 % 0 % 0 % 0 m²/s² 0 0 6.8 80
01:00 0 J/kg 5.7 K 0 % 0 % 0 % 0 m²/s² 0 0 6.84 61
02:00 0 J/kg 5.5 K 0 % 0 % 0 % 0 m²/s² 0 0 6.43 61
03:00 0 J/kg 5.5 K 0 % 0 % 0 % 0 m²/s² 0 0 6.07 61
04:00 0 J/kg 5.6 K 0 % 0 % 0 % 0 m²/s² 0 0 6.02 80
05:00 2 J/kg 5.4 K 0 % 0 % 0 % 0 m²/s² 0 0 5.7 80
06:00 3 J/kg 5.1 K 0 % 0 % 0 % 0 m²/s² 0 0 5.34 80
07:00 13 J/kg 5.4 K 0 % 0 % 0 % 0 m²/s² 0 0 5.67 80
08:00 28 J/kg 5.1 K 0 % 0 % 0 % 0 m²/s² 0 0 5.4 80
09:00 64 J/kg 4.5 K 0 % 0 % 0 % 0 m²/s² 0 0 4.83 61
10:00 62 J/kg 4.4 K 0 % 0 % 0 % 0 m²/s² 0 0 4.73 61
11:00 101 J/kg 4.0 K 0 % 0 % 0 % 0 m²/s² 0 0 4.27 61
12:00 138 J/kg 3.6 K 0 % 0 % 0 % 0 m²/s² 0 0 3.93 61
13:00 78 J/kg 4.8 K 0 % 0 % 0 % 0 m²/s² 0 0 5.13 80
14:00 140 J/kg 4.0 K 0 % 0 % 0 % 0 m²/s² 0 0 4.33 80
15:00 138 J/kg 3.9 K 0 % 0 % 0 % 0 m²/s² 0 0 4.26 80
16:00 69 J/kg 4.9 K 0 % 0 % 0 % 0 m²/s² 0 0 5.38 80
17:00 85 J/kg 4.8 K 0 % 0 % 0 % 0 m²/s² 0 0 5.91 80
18:00 93 J/kg 4.7 K 0 % 0 % 0 % 0 m²/s² 0 0 6.08 80
19:00 116 J/kg 4.6 K 0 % 0 % 0 % 0 m²/s² 0 0 5.98 80
20:00 93 J/kg 4.9 K 0 % 0 % 0 % 0 m²/s² 0 0 6.22 80
21:00 117 J/kg 4.5 K 0 % 0 % 0 % 0 m²/s² 0 0 6.03 80
22:00 104 J/kg 4.4 K 0 % 0 % 0 % 0 m²/s² 0 0 6.35 80
23:00 91 J/kg 4.7 K 0 % 0 % 0 % 0 m²/s² 0 0 7.04 80
Midzomernacht Zondag 23 Jun
00:00 105 J/kg 4.4 K 0 % 0 % 0 % 0 m²/s² 0 0 6.65 80
01:00 84 J/kg 4.5 K 0 % 0 % 0 % 0 m²/s² 0 0 6.75 80
02:00 94 J/kg 4.7 K 0 % 0 % 0 % 0 m²/s² 0 0 6.89 80
03:00 87 J/kg 4.9 K 0 % 0 % 0 % 0 m²/s² 0 0 7.09 80
04:00 80 J/kg 4.7 K 0 % 0 % 0 % 0 m²/s² 0 0 6.95 80
05:00 79 J/kg 4.8 K 0 % 0 % 0 % 0 m²/s² 0 0 7.05 80
06:00 118 J/kg 3.8 K 0 % 0 % 0 % 0 m²/s² 0 0 6.05 80
07:00 113 J/kg 3.7 K 0 % 0 % 0 % 0 m²/s² 0 0 5.77 80
08:00 90 J/kg 3.9 K 0 % 0 % 0 % 0 m²/s² 0 0 6.15 80
09:00 101 J/kg 3.7 K 0 % 0 % 0 % 0 m²/s² 0 0 6.01 80
10:00 122 J/kg 2.9 K 0 % 0 % 0 % 0 m²/s² 0 0 5.63 80
11:00 99 J/kg 3.1 K 0 % 0 % 0 % 0 m²/s² 0 0 6.25 80
Temp Baro Wind Neerslag
  EWN Forecast EWN WRFDA DWD ICON FMI HIRLAM MET Norway GFS
Midzomernacht Vandaag
14:00 17.0° 1007.3 hPa 3.5 m/s 0.0 mm 18.2° 1005.8 hPa 3.1 m/s 0.0 mm 16.3° 1007.1 hPa 2.9 m/s -2.0 mm 16.9° 1007.6 hPa 2.6 m/s 0.0 mm 18.2° 1008.1 hPa 3.6 m/s 0.0 mm 16.5° 1007.6 hPa 5.4 m/s
17:00 16.5° 1006.5 hPa 5.2 m/s 0.0 mm 16.1° 1006.1 hPa 6.9 m/s 0.0 mm 17.1° 1006.6 hPa 5.6 m/s 0.0 mm 17.6° 1006.5 hPa 4.5 m/s 0.0 mm 16.6° 1007.3 hPa 3.2 m/s 0.0 mm 14.3° 1006.8 hPa 8.0 m/s
20:00 15.2° 1004.6 hPa 6.3 m/s 0.0 mm 15.7° 1002.5 hPa 7.0 m/s 0.2 mm 15.9° 1004.6 hPa 6.7 m/s 0.0 mm 14.7° 1005.4 hPa 6.4 m/s 0.0 mm 15.1° 1005.2 hPa 5.2 m/s 0.0 mm 13.6° 1004.8 hPa 4.9 m/s
23:00 14.8° 1003.6 hPa 6.1 m/s 0.0 mm 15.0° 999.9 hPa 7.0 m/s 0.2 mm 15.3° 1003.9 hPa 4.6 m/s 0.0 mm 13.1° 1004.2 hPa 6.2 m/s 0.0 mm 14.8° 1004.0 hPa 6.2 m/s 0.0 mm 13.4° 1003.6 hPa 4.4 m/s
Midzomernacht Morgen
02:00 14.1° 1002.4 hPa 5.6 m/s 0.0 mm 14.5° 998.6 hPa 6.7 m/s 0.2 mm 14.9° 1002.4 hPa 4.5 m/s 0.0 mm 13.0° 1003.4 hPa 5.1 m/s 0.0 mm 13.8° 1003.1 hPa 5.6 m/s 0.0 mm 13.1° 1002.6 hPa 3.8 m/s
05:00 13.0° 1002.5 hPa 2.6 m/s 0.0 mm 12.7° 998.6 hPa 3.9 m/s 6.0 mm 14.3° 1002.1 hPa 1.8 m/s 0.0 mm 12.6° 1003.1 hPa 2.4 m/s 0.0 mm 13.3° 1003.1 hPa 3.9 m/s 0.0 mm 12.4° 1001.6 hPa 2.8 m/s
08:00 12.7° 1002.7 hPa 1.5 m/s 2.9 mm 12.0° 998.9 hPa 6.1 m/s 26.5 mm 13.2° 1002.2 hPa 1.2 m/s 0.7 mm 12.0° 1003.1 hPa 1.1 m/s 0.0 mm 14.3° 1003.3 hPa 1.3 m/s 0.0 mm 11.4° 1001.4 hPa 2.6 m/s
11:00 12.2° 1004.1 hPa 4.2 m/s 9.8 mm 12.9° 1000.3 hPa 9.3 m/s 38.7 mm 11.7° 1004.0 hPa 1.8 m/s 6.3 mm 12.2° 1004.2 hPa 4.6 m/s 0.0 mm 12.6° 1004.5 hPa 3.1 m/s 0.9 mm 11.1° 1002.2 hPa 2.1 m/s
14:00 12.1° 1005.4 hPa 5.8 m/s 3.2 mm 11.7° 1002.4 hPa 10.4 m/s 40.3 mm 11.9° 1004.5 hPa 2.3 m/s 0.4 mm 12.9° 1005.3 hPa 6.9 m/s 0.0 mm 12.0° 1005.9 hPa 4.2 m/s 3.3 mm 11.1° 1003.5 hPa 5.5 m/s
17:00 11.7° 1006.4 hPa 6.3 m/s 2.9 mm 12.5° 1003.6 hPa 7.6 m/s 40.5 mm 11.2° 1005.8 hPa 8.3 m/s 0.2 mm 12.1° 1006.3 hPa 6.8 m/s 0.0 mm 11.4° 1007.0 hPa 4.6 m/s 1.1 mm 10.9° 1004.3 hPa 6.8 m/s
20:00 11.5° 1006.7 hPa 3.9 m/s 0.0 mm 11.8° 1003.5 hPa 4.2 m/s 40.5 mm 11.1° 1006.6 hPa 5.3 m/s 0.4 mm 11.8° 1006.7 hPa 4.0 m/s 0.0 mm 11.4° 1007.3 hPa 2.9 m/s 0.0 mm 10.6° 1004.6 hPa 2.9 m/s
23:00 11.0° 1007.0 hPa 1.4 m/s 0.0 mm 10.4° 1004.0 hPa 3.1 m/s 40.5 mm 10.8° 1006.5 hPa 0.3 m/s 2.0 mm 10.9° 1007.0 hPa 1.5 m/s 0.0 mm 11.1° 1007.4 hPa 0.8 m/s 0.0 mm 10.6° 1005.4 hPa 1.7 m/s
Midzomernacht Zaterdag 22 Jun
02:00 10.6° 1007.1 hPa 2.2 m/s 0.0 mm 9.4° 1003.6 hPa 1.3 m/s 40.5 mm 10.7° 1006.4 hPa 2.8 m/s 2.0 mm 10.7° 1007.1 hPa 3.6 m/s 0.0 mm 10.8° 1007.8 hPa 1.5 m/s 0.0 mm 10.2° 1004.7 hPa 5.3 m/s
05:00 10.6° 1006.8 hPa 1.8 m/s 0.0 mm 10.3° 1003.5 hPa 1.0 m/s 40.5 mm 10.6° 1006.5 hPa 3.8 m/s 1.6 mm 10.9° 1007.8 hPa 1.4 m/s 0.0 mm 10.2° 1005.1 hPa 2.5 m/s
08:00 11.0° 1006.6 hPa 3.0 m/s 9.2 mm 11.0° 1003.6 hPa 3.7 m/s 40.7 mm 10.3° 1006.0 hPa 3.6 m/s 1.8 mm 11.2° 1007.6 hPa 3.1 m/s 0.8 mm 10.1° 1005.4 hPa 2.9 m/s
11:00 11.4° 1007.6 hPa 4.1 m/s 9.6 mm 11.5° 1004.7 hPa 4.5 m/s 41.5 mm 10.5° 1007.1 hPa 3.6 m/s 2.8 mm 11.7° 1008.6 hPa 4.0 m/s 0.6 mm 10.7° 1006.7 hPa 8.5 m/s
14:00 11.4° 1008.6 hPa 4.2 m/s 9.0 mm 11.6° 1005.9 hPa 4.0 m/s 42.5 mm 10.4° 1008.0 hPa 5.5 m/s 2.5 mm 11.7° 1010.4 hPa 3.7 m/s 0.3 mm 10.8° 1008.0 hPa 6.5 m/s
17:00 10.9° 1009.7 hPa 7.0 m/s 9.0 mm 10.8° 1007.6 hPa 7.3 m/s 44.4 mm 10.7° 1009.1 hPa 7.2 m/s 1.9 mm 11.3° 1012.3 hPa 6.9 m/s 0.0 mm 10.8° 1009.4 hPa 10.3 m/s
20:00 10.7° 1010.6 hPa 7.1 m/s 0.0 mm 10.9° 1008.1 hPa 7.6 m/s 48.1 mm 10.4° 1009.5 hPa 7.1 m/s 1.2 mm 10.7° 1013.6 hPa 7.2 m/s 0.0 mm 10.8° 1009.9 hPa 8.4 m/s
23:00 10.4° 1011.8 hPa 7.6 m/s 3.7 mm 10.4° 1009.0 hPa 8.1 m/s 49.8 mm 10.1° 1010.5 hPa 8.6 m/s 1.5 mm 10.7° 1014.8 hPa 5.1 m/s 0.0 mm 10.4° 1011.1 hPa 7.8 m/s
Midzomernacht Zondag 23 Jun
02:00 10.5° 1012.6 hPa 6.1 m/s 0.0 mm 9.9° 1010.4 hPa 8.1 m/s 50.7 mm 9.9° 1011.2 hPa 8.1 m/s 1.7 mm 10.7° 1015.9 hPa 5.7 m/s 0.0 mm 10.2° 1012.6 hPa 9.9 m/s
05:00 10.3° 1013.0 hPa 6.3 m/s 18.7 mm 10.3° 1011.5 hPa 7.0 m/s 51.9 mm 9.9° 1012.5 hPa 6.7 m/s 2.2 mm 10.5° 1013.7 hPa 5.9 m/s 9.9° 1014.2 hPa 9.9 m/s
08:00 10.4° 1012.1 hPa 6.8 m/s 18.8 mm 11.4° 1012.6 hPa 8.1 m/s 54.2 mm 10.1° 1013.0 hPa 7.4 m/s 1.1 mm 10.3° 1011.5 hPa 6.1 m/s 10.5° 1016.1 hPa 8.5 m/s
11:00 11.1° 1013.9 hPa 6.7 m/s 18.9 mm 12.6° 1014.0 hPa 6.2 m/s 54.6 mm 10.4° 1014.6 hPa 8.4 m/s 1.1 mm 11.0° 1013.5 hPa 6.4 m/s 10.4° 1018.3 hPa 9.0 m/s
14:00 11.7° 1015.7 hPa 6.9 m/s 18.7 mm 13.3° 1014.8 hPa 6.4 m/s 54.6 mm 10.7° 1016.6 hPa 8.3 m/s 0.8 mm 11.7° 1015.6 hPa 6.7 m/s 10.0° 1020.1 hPa 8.6 m/s
17:00 10.8° 1017.8 hPa 6.3 m/s 20.3 mm 10.8° 1017.5 hPa 6.2 m/s 10.2° 1021.0 hPa 6.8 m/s 20.3 mm
20:00 10.4° 1018.7 hPa 6.0 m/s 21.0 mm 10.4° 1018.4 hPa 6.0 m/s 10.1° 1022.0 hPa 6.3 m/s 21.0 mm
23:00 9.9° 1019.6 hPa 5.9 m/s 22.5 mm 9.9° 1019.3 hPa 5.7 m/s 9.4° 1023.3 hPa 7.9 m/s 22.5 mm
Midzomernacht Maandag 24 Jun
02:00 9.5° 1020.5 hPa 5.5 m/s 22.7 mm 9.5° 1020.2 hPa 5.4 m/s 9.3° 1024.0 hPa 6.8 m/s 22.7 mm
05:00 9.6° 1021.9 hPa 5.4 m/s 23.4 mm 9.7° 1021.8 hPa 5.5 m/s 9.1° 1024.0 hPa 4.1 m/s 23.4 mm
08:00 9.8° 1023.4 hPa 5.4 m/s 23.7 mm 9.8° 1023.3 hPa 5.6 m/s 10.0° 1024.0 hPa 3.7 m/s 23.7 mm
11:00 10.4° 1025.2 hPa 5.3 m/s 24.0 mm 10.4° 1025.2 hPa 5.7 m/s 9.8° 1024.6 hPa 1.4 m/s 24.0 mm
14:00 11.0° 1026.9 hPa 5.5 m/s 24.2 mm 11.1° 1027.1 hPa 5.7 m/s 10.4° 1025.2 hPa 3.9 m/s 24.2 mm
17:00 10.6° 1027.8 hPa 5.3 m/s 24.5 mm 10.6° 1028.0 hPa 5.3 m/s 10.6° 1026.1 hPa 5.7 m/s 24.5 mm
20:00 10.0° 1028.8 hPa 4.9 m/s 24.9 mm 10.0° 1028.9 hPa 4.9 m/s 10.1° 1027.4 hPa 4.7 m/s 24.9 mm
23:00 9.6° 1029.1 hPa 4.5 m/s 25.5 mm 9.6° 1029.1 hPa 4.6 m/s 9.7° 1029.2 hPa 4.1 m/s 25.5 mm
Midzomernacht Dinsdag 25 Jun
02:00 9.2° 1029.3 hPa 4.3 m/s 26.1 mm 9.2° 1029.2 hPa 4.2 m/s 9.4° 1030.9 hPa 4.8 m/s 26.1 mm
05:00 9.5° 1029.2 hPa 4.3 m/s 26.7 mm 9.6° 1029.1 hPa 4.2 m/s 9.5° 1031.2 hPa 5.7 m/s 26.7 mm
08:00 9.9° 1029.1 hPa 4.3 m/s 27.4 mm 9.9° 1028.9 hPa 4.2 m/s 9.4° 1031.6 hPa 5.1 m/s 27.4 mm
11:00 10.5° 1029.2 hPa 4.4 m/s 27.7 mm 10.6° 1029.0 hPa 4.3 m/s 9.7° 1031.7 hPa 4.6 m/s 27.7 mm
14:00 11.2° 1029.2 hPa 4.6 m/s 27.7 mm 11.3° 1029.0 hPa 4.5 m/s 10.0° 1031.3 hPa 5.7 m/s 27.7 mm
17:00 10.9° 1028.1 hPa 4.5 m/s 27.7 mm 10.9° 1027.9 hPa 4.3 m/s 9.8° 1030.7 hPa 7.0 m/s 27.7 mm
20:00 10.5° 1027.0 hPa 4.3 m/s 27.7 mm 10.6° 1026.8 hPa 4.1 m/s 9.9° 1029.7 hPa 6.9 m/s 27.7 mm
23:00 9.9° 1026.3 hPa 3.5 m/s 27.7 mm 9.9° 1026.0 hPa 3.2 m/s 10.3° 1029.0 hPa 6.8 m/s 27.7 mm
Midzomernacht Woensdag 26 Jun
02:00 9.3° 1025.5 hPa 2.8 m/s 27.7 mm 9.2° 1025.3 hPa 2.4 m/s 10.2° 1027.6 hPa 7.4 m/s 27.7 mm
05:00 9.8° 1023.9 hPa 4.0 m/s 27.7 mm 9.8° 1023.8 hPa 3.6 m/s 10.4° 1025.9 hPa 8.0 m/s 27.7 mm
08:00 10.4° 1022.3 hPa 5.2 m/s 27.8 mm 10.4° 1022.2 hPa 4.8 m/s 10.8° 1023.8 hPa 10.0 m/s 27.8 mm
11:00 10.6° 1021.4 hPa 7.0 m/s 27.8 mm 10.6° 1021.4 hPa 6.4 m/s 11.1° 1022.0 hPa 13.7 m/s 27.8 mm
14:00 10.8° 1020.6 hPa 8.3 m/s 29.0 mm 10.8° 1020.6 hPa 8.0 m/s 10.5° 1020.4 hPa 11.3 m/s 29.0 mm
17:00 10.6° 1019.2 hPa 7.8 m/s 32.0 mm 10.6° 1019.2 hPa 7.3 m/s 10.4° 1018.5 hPa 13.2 m/s 32.0 mm
20:00 10.4° 1017.8 hPa 7.1 m/s 36.1 mm 10.4° 1017.9 hPa 6.7 m/s 10.4° 1017.0 hPa 10.9 m/s 36.1 mm
23:00 10.1° 1015.9 hPa 6.4 m/s 38.0 mm 10.1° 1015.8 hPa 6.2 m/s 10.4° 1016.3 hPa 8.5 m/s 38.0 mm
Midzomernacht Donderdag 27 Jun
02:00 9.6° 1014.0 hPa 6.1 m/s 38.3 mm 9.7° 1013.8 hPa 5.7 m/s 9.0° 1016.4 hPa 10.4 m/s 38.3 mm
05:00 9.6° 1013.0 hPa 6.1 m/s 39.1 mm 9.7° 1012.6 hPa 6.1 m/s 8.7° 1016.9 hPa 6.1 m/s 39.1 mm
08:00 9.6° 1012.0 hPa 6.4 m/s 39.5 mm 9.7° 1011.5 hPa 6.5 m/s 8.2° 1017.1 hPa 5.6 m/s 39.5 mm
11:00 10.1° 1011.4 hPa 6.5 m/s 39.6 mm 10.2° 1010.9 hPa 6.6 m/s 8.4° 1017.1 hPa 5.4 m/s 39.6 mm
14:00 10.5° 1010.9 hPa 6.6 m/s 40.1 mm 10.7° 1010.3 hPa 6.7 m/s 8.1° 1017.1 hPa 5.8 m/s 40.2 mm
20:00 8.8° 1011.5 hPa 5.3 m/s 40.9 mm 8.9° 1011.0 hPa 5.4 m/s 7.5° 1017.0 hPa 4.6 m/s 40.9 mm
Midzomernacht Vrijdag 28 Jun
02:00 8.9° 1012.3 hPa 4.6 m/s 41.7 mm 9.1° 1011.9 hPa 4.6 m/s 7.0° 1016.7 hPa 4.7 m/s 41.7 mm
08:00 8.8° 1012.9 hPa 4.0 m/s 42.1 mm 9.0° 1012.7 hPa 4.2 m/s 6.7° 1014.8 hPa 1.4 m/s 42.1 mm
14:00 9.9° 1013.7 hPa 4.9 m/s 42.1 mm 10.0° 1013.9 hPa 5.0 m/s 8.2° 1012.1 hPa 4.1 m/s 42.1 mm
20:00 9.4° 1013.1 hPa 4.7 m/s 42.1 mm 9.3° 1013.7 hPa 4.7 m/s 10.3° 1006.1 hPa 5.2 m/s 42.1 mm
Midzomernacht Zaterdag 29 Jun
02:00 12.0° 997.0 hPa 6.4 m/s 42.1 mm 12.0° 997.0 hPa 6.4 m/s 42.1 mm
08:00 12.6° 993.2 hPa 4.0 m/s 45.9 mm 12.6° 993.2 hPa 4.0 m/s 45.9 mm
14:00 15.0° 993.5 hPa 3.8 m/s 46.3 mm 15.0° 993.5 hPa 3.8 m/s 46.3 mm
20:00 15.3° 989.9 hPa 6.5 m/s 46.7 mm 15.4° 989.9 hPa 6.5 m/s 46.7 mm
Midzomernacht Zondag 30 Jun
02:00 12.2° 991.0 hPa 2.1 m/s 47.6 mm 12.2° 991.0 hPa 2.1 m/s 47.6 mm
08:00 9.9° 1011.3 hPa 1.1 m/s 0.8 mm
14:00 12.0° 1011.2 hPa 2.1 m/s 0.8 mm
20:00 11.9° 1011.2 hPa 2.1 m/s 0.5 mm
Midzomernacht Maandag 01 Jul
02:00 10.0° 1011.4 hPa 0.4 m/s 0.4 mm
08:00 11.3° 1010.6 hPa 0.4 m/s 0.5 mm
14:00 13.2° 1009.9 hPa 2.2 m/s 0.6 mm
20:00 12.7° 1009.6 hPa 2.5 m/s 0.6 mm
Midzomernacht Dinsdag 02 Jul
02:00 10.9° 1009.8 hPa 0.5 m/s 1.0 mm
08:00 12.1° 1009.3 hPa 0.7 m/s 0.7 mm
14:00 13.8° 1009.1 hPa 1.8 m/s 0.7 mm
20:00 13.3° 1009.0 hPa 2.2 m/s 0.8 mm
Midzomernacht Woensdag 03 Jul
02:00 11.4° 1009.3 hPa 1.0 m/s 0.7 mm
08:00 12.8° 1009.1 hPa 0.4 m/s 0.9 mm
14:00 14.3° 1009.5 hPa 2.3 m/s 0.6 mm
20:00 13.9° 1009.7 hPa 2.6 m/s 0.3 mm
Midzomernacht Donderdag 04 Jul
02:00 11.8° 1010.2 hPa 1.1 m/s 0.2 mm
08:00 13.4° 1009.9 hPa 0.8 m/s 0.4 mm
14:00 15.5° 1010.0 hPa 2.4 m/s 0.5 mm
20:00 15.1° 1010.2 hPa 2.6 m/s 0.5 mm
Midzomernacht Vrijdag 05 Jul
02:00 12.9° 1011.1 hPa 1.0 m/s 0.4 mm
08:00 14.6° 1010.9 hPa 0.9 m/s 0.4 mm
FMI Hirlam - 7.5 km EWN WRFDA - 12 km DWD ICON - 7 km GFS - 25 km Basiskaart






























































Updatetijd (Europe/Amsterdam) Resolutie Lengte Stap
FMI Hirlam 07:00, 13:00, 19:00, 01:00 7.5 km 49h 1h
EWN WRFDA 10:00, 16:00, 22:00, 04:00 12 km 73h 1h
DWD ICON 11:45, 17:45, 23:45, 05:45 7 km 75h 1h
GFS 08:45, 14:45, 20:45, 02:45 25 km 237h 3h
30+ mm
25-30 mm
20-25 mm
15-20 mm
10-15 mm
6-10 mm
4-6 mm
2-4 mm
1-2 mm
0.5-1 mm
0.2-0.5 mm
0.1-0.2 mm
30+ mm
25-30 mm
20-25 mm
15-20 mm
10-15 mm
6-10 mm
4-6 mm
2-4 mm
1-2 mm
0.5-1 mm
0.2-0.5 mm
0.1-0.2 mm
Sneeuwval
Natte sneeuw
Hagel
Vorst
30+ mm
25-30 mm
20-25 mm
15-20 mm
10-15 mm
6-10 mm
4-6 mm
2-4 mm
1-2 mm
0.5-1 mm
0.2-0.5 mm
0.1-0.2 mm
Sneeuwval
Natte sneeuw
Hagel
Vorst
Onweer
50 mm
40 mm
30 mm
26 mm
22 mm
18 mm
14 mm
10 mm
9 mm
8 mm
7 mm
6 mm
5 mm
4.5 mm
4 mm
3.5 mm
3 mm
2.5 mm
2 mm
1.5 mm
1 mm
0.8 mm
0.6 mm
0.4 mm
0.2 mm
0.05 mm
35°
30°
25°
20°
15°
10°
-5°
-10°
-15°
-20°
-25°
-30°
-35°
120> km/h
105 km/h
90 km/h
75 km/h
60 km/h
50 km/h
40 km/h
30 km/h
20 km/h
10 km/h
0 km/h
2600 J/kg
2400 J/kg
2200 J/kg
2000 J/kg
1800 J/kg
1600 J/kg
1400 J/kg
1200 J/kg
1000 J/kg
800 J/kg
600 J/kg
400 J/kg
200 J/kg
70 dBZ
65 dBZ
60 dBZ
55 dBZ
50 dBZ
45 dBZ
40 dBZ
35 dBZ
30 dBZ
25 dBZ
20 dBZ
15 dBZ
10 dBZ
5 dBZ
-1 K
-2 K
-3 K
-4 K
-5 K
-6 K
-7 K
-8 K
-9 K
950 m²/s²
900 m²/s²
850 m²/s²
800 m²/s²
750 m²/s²
700 m²/s²
650 m²/s²
600 m²/s²
550 m²/s²
500 m²/s²
450 m²/s²
400 m²/s²
350 m²/s²
300 m²/s²
250 m²/s²
200 m